GFSWCAN_850_temp_231.txt.gz
Temp
8 7 7 6 7 7 7 8 9 10 10 10 11 11 11 12 13 14 14 14 14 15 15 18 19 20 21 21 17 19 19 22 18 17 17 17 16 15 16 16 16 16 18 21 19 21 22 19 19 21 18 18 20 23
8 8 7 7 8 8 8 8 9 9 10 10 11 11 11 12 12 13 14 14 14 14 16 19 20 20 21 21 22 21 22 23 22 15 14 14 14 14 15 18 16 17 17 15 19 20 20 19 19 19 20 22 22 24
9 8 8 9 9 9 9 9 9 9 10 10 11 11 11 12 13 13 14 13 14 15 17 19 21 21 22 22 22 22 23 22 23 23 18 14 15 14 15 17 16 15 15 17 19 20 20 19 19 19 19 23 24 25
9 9 8 8 9 9 9 9 9 10 10 11 11 11 12 13 13 13 14 13 13 15 17 21 22 22 22 22 22 22 22 23 24 24 23 18 17 14 15 15 14 15 17 19 19 17 19 21 21 22 23 23 24 24
8 8 8 7 8 9 9 9 9 10 10 10 11 12 12 13 14 14 14 14 14 13 16 16 20 22 22 22 22 22 22 23 23 23 22 21 18 15 15 13 14 16 17 17 17 19 19 21 22 23 23 24 23 24
8 7 6 6 7 8 9 9 10 10 10 11 12 12 13 13 14 13 14 14 13 15 15 18 22 22 22 21 21 22 21 22 23 23 22 25 24 23 21 18 18 18 19 19 19 21 21 22 22 22 22 23 24 24
8 7 7 6 7 8 9 9 10 10 11 11 12 13 13 14 14 14 14 14 14 15 14 18 20 22 21 21 21 22 22 22 23 23 23 24 23 23 20 17 18 18 19 18 18 19 19 20 20 21 22 22 22 23
9 8 8 7 7 8 9 10 10 11 11 12 13 13 13 14 14 14 15 15 15 15 16 17 20 21 22 22 22 22 22 22 22 23 23 22 22 23 16 17 18 17 18 18 17 18 18 19 19 18 19 19 21 21
9 9 8 8 8 8 9 10 10 11 12 12 13 13 14 14 14 14 14 15 15 14 14 19 19 19 21 21 22 22 22 19 22 20 21 22 20 15 16 17 16 16 16 16 16 16 15 15 15 15 15 17 18 18
9 9 9 9 10 9 8 9 10 11 12 13 14 14 14 14 14 15 15 15 14 15 14 17 20 19 20 20 19 21 21 19 19 20 22 19 15 17 16 16 16 15 15 15 14 14 14 14 13 13 13 14 15 18
9 9 9 9 9 9 8 9 9 10 12 13 12 13 14 14 15 15 17 17 17 18 19 20 20 19 18 17 17 19 17 19 19 19 20 19 15 16 16 15 15 14 14 14 13 13 13 13 12 13 13 13 14 15
9 9 9 9 9 9 9 8 9 9 9 9 10 11 13 14 16 16 16 17 18 18 19 19 19 19 18 18 18 18 18 18 18 20 19 18 15 17 16 15 14 14 13 13 13 13 12 12 11 11 12 12 13 14
9 9 9 9 9 9 8 8 8 8 10 9 10 10 14 15 12 16 17 17 17 19 18 19 18 19 18 19 19 17 18 17 20 18 18 15 16 16 15 15 14 14 14 14 13 13 13 12 12 11 11 11 11 12
9 8 9 8 7 8 8 8 8 9 9 9 13 8 14 16 17 18 18 18 19 19 19 19 19 19 19 18 18 17 18 18 18 18 15 14 16 16 15 15 15 14 15 14 14 14 13 13 11 11 11 11 10 11
8 8 8 7 7 7 8 9 9 8 8 12 15 10 17 18 19 19 19 19 19 19 18 18 18 18 17 17 18 17 17 17 16 14 14 15 15 15 15 15 15 15 14 14 14 13 13 12 12 12 11 11 11 11
8 8 6 5 7 8 8 9 9 9 9 12 14 15 17 17 15 17 16 18 18 18 17 16 17 16 17 17 17 17 17 16 14 13 13 13 14 15 15 15 14 13 14 13 13 13 13 13 12 12 12 11 11 10
8 7 6 7 8 9 9 9 8 9 12 14 15 16 17 17 14 13 13 14 14 17 15 16 16 16 17 17 17 17 14 14 15 14 14 14 14 14 14 14 13 14 14 14 14 13 13 12 12 12 12 12 12 11
7 7 7 7 8 9 8 9 10 12 13 14 15 15 15 13 13 11 11 10 14 13 13 11 14 17 16 16 14 12 12 13 13 14 14 14 14 14 13 13 13 14 14 14 14 14 13 13 13 13 12 12 11 11
7 7 7 7 7 7 7 10 11 12 13 14 14 11 12 11 10 11 11 11 12 12 12 11 14 14 14 14 14 13 12 12 12 14 13 13 13 13 14 14 14 14 14 14 14 14 14 14 13 13 13 13 12 12
8 7 7 7 7 6 8 10 11 11 13 13 13 13 13 12 12 11 11 9 10 10 11 15 13 14 15 14 13 13 12 13 14 14 14 14 13 13 13 14 14 13 13 13 14 14 14 14 13 13 14 13 13 13
7 7 7 7 7 7 8 10 11 11 12 13 13 13 11 12 12 11 11 11 12 11 11 13 14 13 13 13 14 13 12 13 13 12 13 13 13 13 13 13 13 13 13 13 13 13 13 13 13 13 13 13 13 13
6 6 6 7 7 8 9 10 11 11 12 13 13 13 12 12 11 10 11 12 12 12 12 13 13 13 13 12 12 12 12 12 12 13 13 13 13 13 12 12 12 12 13 12 12 13 13 13 13 13 13 13 14 13
6 6 7 7 9 9 10 11 11 12 11 11 12 12 12 12 12 11 9 11 13 12 13 13 13 12 12 12 12 12 12 12 12 12 13 13 13 13 12 12 12 12 11 11 12 12 13 13 13 13 13 13 13 13
6 6 7 9 10 9 12 12 12 12 12 12 11 11 11 12 13 13 12 11 11 11 12 12 12 13 13 12 12 12 12 12 12 13 13 13 13 13 13 12 12 11 11 11 12 12 12 13 13 13 13 13 13 13
6 8 8 8 11 12 12 13 14 14 14 16 14 12 11 13 13 13 12 11 11 11 12 12 12 12 12 12 11 11 11 12 13 13 13 13 13 13 12 12 13 12 12 11 11 11 12 12 12 13 14 14 13 14
4 10 9 11 12 13 13 13 14 14 15 15 15 15 16 15 14 12 12 12 11 11 12 12 11 11 11 11 11 12 12 12 13 13 13 14 14 14 14 13 13 13 13 12 12 12 13 13 13 13 13 14 13 13
6 11 11 11 12 13 12 14 14 15 14 14 14 14 15 14 13 12 12 12 12 12 12 12 12 12 12 12 12 12 13 13 13 14 14 14 14 14 14 14 14 14 13 14 13 13 13 13 13 13 13 14 14 14
10 11 11 12 13 13 13 14 13 14 14 13 13 13 13 14 13 12 13 12 12 12 12 12 12 12 12 12 12 13 12 13 14 14 14 15 15 14 14 14 14 14 14 14 14 14 14 14 14 14 14 14 14 14
11 12 13 12 13 14 14 14 14 14 13 13 13 13 14 13 13 13 12 12 12 12 12 12 12 12 11 12 13 13 12 13 13 13 14 14 14 14 14 14 14 14 14 14 14 14 14 14 14 14 14 14 14 14
13 13 13 13 14 13 13 13 12 11 12 12 13 13 13 12 12 13 12 12 12 12 12 12 12 12 12 12 12 12 12 12 13 13 13 13 13 13 14 14 14 14 14 14 14 14 14 14 14 14 14 14 13 14
13 13 14 14 14 14 14 13 13 11 9 10 11 12 11 12 11 11 12 12 11 12 12 12 11 11 12 12 12 12 12 12 12 12 13 13 13 13 13 14 14 13 14 14 14 14 14 15 14 14 14 13 13 13
14 14 15 15 15 15 15 13 12 10 9 10 11 10 11 11 12 11 11 11 12 12 11 12 12 12 12 12 12 12 12 12 12 12 13 12 13 13 13 13 13 13 13 13 14 14 14 14 13 13 13 12 12 12
15 15 15 15 16 16 13 13 11 10 10 10 11 11 11 12 12 12 12 12 12 11 12 12 12 12 12 12 13 13 13 13 13 13 12 12 12 12 12 13 13 13 12 12 12 12 12 12 12 12 12 12 11 11

GFSWCAN_850_temp_234.txt.gz
Temp
9 9 9 9 9 9 9 10 9 9 9 10 10 10 11 11 12 13 13 13 12 12 15 17 17 18 19 19 16 18 17 16 13 14 14 14 15 14 15 15 15 15 15 15 16 19 20 19 18 20 18 18 21 21
9 9 9 9 9 9 9 9 9 9 9 10 10 10 11 11 12 13 14 13 12 12 15 17 18 19 19 20 19 20 18 18 16 13 13 13 14 13 14 16 15 15 15 15 15 17 18 19 18 19 20 21 20 20
9 9 9 9 9 9 9 9 9 9 10 10 10 11 11 11 12 13 14 14 14 13 15 17 21 22 21 21 21 21 21 21 21 20 14 13 15 13 14 15 15 15 14 14 14 17 18 20 20 20 21 22 23 21
9 9 9 8 8 8 9 9 9 9 10 10 10 11 11 12 12 13 13 13 12 12 12 18 20 21 21 21 21 22 22 22 22 21 16 13 15 14 13 14 14 14 14 15 16 18 19 20 21 21 22 22 23 23
9 9 9 8 8 8 9 10 10 10 10 10 11 11 12 12 13 14 14 13 13 12 12 15 20 22 21 21 22 22 22 22 22 20 16 16 13 13 12 13 13 14 15 15 15 17 17 19 21 21 21 21 22 22
9 9 9 9 8 8 9 10 10 10 10 11 11 12 12 13 13 13 14 13 13 13 13 11 19 21 21 21 21 21 22 22 22 22 19 20 20 17 14 15 15 17 18 17 17 18 19 19 19 21 21 21 22 23
10 10 10 10 10 10 10 10 11 11 11 11 12 12 12 13 13 14 14 14 14 14 14 12 14 21 22 21 21 21 21 22 22 22 20 20 21 20 13 14 16 18 17 18 18 19 19 18 16 18 19 19 20 22
10 10 10 10 10 10 11 11 11 11 12 12 13 13 13 14 14 14 14 14 14 14 14 12 14 20 21 21 21 21 21 22 22 22 21 19 20 16 14 14 16 17 17 17 17 17 15 16 17 18 17 18 18 18
10 10 10 10 10 10 10 11 11 12 13 13 13 14 14 14 14 13 14 14 14 14 13 13 14 15 20 20 21 21 21 15 19 16 16 17 12 13 14 14 16 16 16 15 15 15 15 15 14 14 15 16 16 17
9 9 10 10 10 10 10 10 10 11 12 14 13 13 14 13 14 14 14 14 13 14 13 11 17 15 19 18 17 18 18 14 15 15 20 12 12 15 16 16 15 15 15 15 15 13 13 13 13 13 13 14 14 15
9 9 9 10 9 10 10 9 9 10 12 13 13 13 13 14 15 14 14 13 15 13 15 16 18 15 18 14 14 17 13 13 15 15 17 15 12 13 15 15 15 14 14 13 13 13 13 12 12 12 12 13 13 13
9 9 9 9 9 9 8 8 8 9 8 9 10 11 12 13 14 13 12 13 13 14 17 16 18 18 18 18 15 15 15 13 16 16 15 15 12 15 15 14 14 14 13 13 13 13 13 12 12 12 12 12 13 13
9 9 9 8 8 7 8 8 8 8 9 9 9 10 10 13 10 13 14 13 13 16 18 18 15 18 18 18 15 13 15 14 15 15 15 11 13 14 14 14 14 13 13 13 13 13 13 13 13 12 11 11 11 12
9 9 9 8 7 8 7 8 8 9 9 9 10 6 10 12 13 13 13 14 18 18 18 18 17 16 17 15 13 16 14 14 16 15 14 11 14 14 14 14 14 14 14 14 13 13 13 13 13 13 12 11 11 11
8 9 9 8 7 8 8 9 8 9 9 9 11 8 12 15 16 16 15 14 12 16 18 17 16 17 12 15 13 13 16 15 14 12 11 13 14 14 14 14 14 14 14 14 13 13 13 13 13 13 12 12 11 11
8 8 7 7 8 8 9 10 9 9 9 9 11 12 14 13 13 12 11 10 13 11 15 16 14 13 14 13 15 15 15 13 11 10 13 14 15 15 14 14 14 14 14 13 13 13 12 12 12 12 12 12 12 11
8 7 7 7 8 9 9 9 8 9 11 12 12 13 13 12 10 11 11 10 10 9 9 11 12 14 12 13 14 12 11 10 10 13 13 14 14 14 14 13 13 13 13 14 13 13 13 13 12 12 12 12 11 11
8 8 7 7 8 9 9 9 9 10 11 12 11 10 10 11 11 11 10 10 10 9 9 9 9 12 14 14 11 9 11 11 13 14 13 14 14 14 13 13 13 13 14 14 14 14 13 13 13 13 13 12 12 11
7 7 7 7 7 7 8 9 10 11 12 12 11 11 11 11 10 10 9 9 9 10 9 9 9 11 10 11 11 12 13 14 14 14 13 13 13 13 13 13 13 14 14 14 14 14 14 13 13 13 13 13 13 12
8 7 6 7 7 7 7 10 11 11 11 12 12 12 11 11 11 11 11 11 10 10 9 10 10 12 13 13 13 13 13 13 13 13 13 13 13 13 13 13 13 14 14 14 14 14 14 14 13 13 13 13 13 13
7 7 7 7 7 7 8 9 10 11 11 12 12 12 10 10 10 11 11 10 10 9 10 12 13 13 12 12 13 13 13 13 13 13 13 13 13 13 13 13 13 13 13 13 13 13 13 13 13 13 13 13 13 13
7 7 7 7 7 8 9 10 10 11 11 12 12 12 11 11 11 10 11 11 11 11 11 12 13 13 13 12 12 12 12 12 12 12 13 13 13 13 12 12 12 12 12 12 12 12 13 13 13 13 14 13 13 13
7 7 7 7 8 9 11 11 11 11 9 11 11 10 11 11 11 11 10 11 11 11 11 12 12 12 12 12 12 12 12 12 12 13 13 13 13 12 12 12 11 11 11 11 12 12 12 13 13 13 13 13 13 13
6 6 7 8 9 9 11 11 12 11 12 10 10 10 10 11 11 11 9 11 10 11 11 11 12 12 12 12 12 12 12 12 13 13 13 13 13 13 13 12 11 11 11 11 12 12 12 12 13 13 13 13 13 13
6 8 8 7 10 11 10 10 12 11 12 12 12 10 11 12 11 10 9 11 11 11 12 12 12 12 12 11 11 12 12 12 12 13 13 13 13 12 13 12 12 12 12 12 12 12 12 12 13 13 13 13 13 13
3 9 10 11 11 10 10 10 11 11 11 12 12 14 14 11 11 10 9 11 11 12 11 11 11 11 11 11 11 11 12 13 13 13 13 14 14 13 13 13 13 13 13 13 13 13 13 13 13 13 13 14 14 13
6 9 11 11 11 12 12 12 13 12 13 12 11 12 12 12 11 10 12 12 12 12 12 12 11 11 11 11 11 12 13 13 13 13 14 14 14 14 14 14 14 14 14 13 13 13 13 13 13 13 14 14 14 14
9 10 10 12 12 12 12 12 12 12 11 13 12 12 12 12 10 12 12 12 12 12 12 12 12 12 12 12 12 12 12 13 14 14 14 14 14 14 14 14 14 14 14 14 14 14 14 14 14 14 13 13 14 14
10 11 11 12 12 11 11 11 12 12 12 12 10 11 12 13 12 12 12 12 12 12 12 11 12 12 12 12 12 12 13 13 14 13 13 13 13 13 14 14 14 14 14 14 14 14 14 14 14 14 14 14 13 14
12 13 12 12 11 11 12 12 12 12 11 11 11 12 12 11 12 12 12 12 12 12 12 12 11 12 12 12 12 12 12 13 12 13 13 13 13 13 13 13 14 14 14 14 14 14 14 14 14 14 14 13 13 13
13 13 13 13 13 14 14 12 12 12 11 10 10 10 10 10 10 11 12 12 12 12 12 12 12 12 12 12 12 12 12 12 13 12 13 13 13 13 13 13 14 14 13 14 13 13 13 13 13 13 13 13 13 12
13 13 13 12 14 13 12 12 12 11 11 11 11 10 10 10 11 11 12 12 12 12 11 11 11 12 12 12 12 12 12 13 13 12 12 12 13 13 13 13 13 13 13 12 12 12 12 12 12 12 12 12 11 11
14 14 15 15 14 14 13 13 12 11 12 12 12 12 12 11 11 11 11 11 12 12 11 11 12 12 12 13 13 13 13 13 13 13 13 13 13 12 12 12 13 13 12 12 12 12 12 12 11 10 10 10 10 10

GFSWCAN_850_temp_237.txt.gz
Temp
9 9 9 9 9 9 9 9 8 9 9 9 10 10 10 11 12 12 12 12 12 12 14 15 16 17 17 17 15 17 15 15 13 14 14 13 14 13 14 15 15 15 15 15 15 17 18 17 19 19 17 19 20 21
9 9 9 8 7 8 8 8 8 9 9 9 10 10 10 11 11 12 12 12 12 11 14 16 16 17 17 18 17 18 17 17 16 13 13 12 14 12 13 15 14 15 14 14 15 17 16 17 18 19 19 19 20 20
9 10 10 9 8 7 8 9 9 9 9 10 10 10 11 11 11 12 13 12 12 12 14 14 19 20 20 20 19 18 18 19 19 18 13 13 15 13 13 14 15 14 14 15 15 17 17 19 20 19 20 20 21 21
10 10 10 10 9 9 8 9 9 9 9 10 10 10 11 11 12 12 13 12 12 11 9 16 18 20 21 21 21 20 20 20 20 18 15 13 14 13 13 14 14 14 14 15 15 17 18 19 19 19 20 20 20 21
10 10 10 10 10 10 10 10 10 10 10 10 10 10 11 12 12 13 13 13 12 11 10 14 19 21 21 21 21 21 20 21 21 17 14 14 13 13 12 12 13 13 14 14 16 17 17 17 18 19 19 20 21 22
10 10 10 10 10 10 10 10 11 11 11 11 11 11 11 12 12 13 13 13 13 12 11 10 18 21 21 21 21 21 21 21 21 20 16 16 16 15 13 14 15 15 16 17 17 17 17 16 16 18 18 19 20 21
10 10 10 10 10 10 10 11 11 11 11 11 12 12 12 12 13 13 13 13 13 12 12 12 12 20 21 21 21 21 21 21 21 20 18 17 17 17 12 14 15 16 17 17 18 17 17 17 15 16 17 17 18 20
10 10 10 10 10 10 10 11 11 11 12 12 13 13 13 13 13 13 13 13 13 12 13 11 12 16 19 20 20 20 21 20 20 19 18 16 16 14 14 13 15 16 16 17 17 17 16 15 15 15 15 16 17 18
10 10 10 10 10 10 10 11 11 11 12 13 13 13 14 13 13 13 13 13 13 13 12 10 11 14 19 18 18 19 19 15 17 14 14 16 11 14 13 13 15 15 16 14 15 15 15 16 15 14 14 15 15 16
10 9 9 10 10 10 10 10 11 11 12 13 13 13 13 13 13 13 13 13 12 12 12 9 14 13 17 16 15 16 16 12 15 13 16 11 11 12 14 15 15 15 15 14 15 14 14 13 13 13 12 12 12 13
9 9 9 9 9 9 8 8 10 11 12 12 12 13 12 13 14 13 13 11 11 11 12 14 15 13 17 14 13 14 12 11 14 14 14 12 12 12 14 14 14 15 14 14 14 13 13 13 13 12 12 12 12 12
9 9 9 9 9 8 7 8 9 10 9 9 9 10 12 13 13 12 10 11 11 12 14 13 16 17 17 17 14 13 14 11 15 13 14 13 11 14 14 14 14 14 14 13 14 14 13 13 13 12 11 11 11 12
8 8 9 9 9 8 8 7 8 8 9 9 8 8 9 11 10 12 13 12 11 13 16 16 14 17 17 17 13 12 15 13 13 13 14 12 12 14 14 14 13 14 14 14 13 13 13 13 13 13 12 11 11 11
8 8 9 8 8 7 8 8 8 9 9 9 8 6 9 11 12 12 12 12 12 11 12 14 15 15 15 14 10 15 13 12 14 14 14 10 13 14 14 14 14 14 14 14 13 13 13 13 13 13 13 12 12 12
8 8 8 8 8 8 8 9 9 9 9 8 9 7 10 12 12 11 12 12 11 11 12 13 14 15 12 14 11 13 15 14 12 12 10 11 13 14 14 14 14 14 14 13 13 13 13 13 12 12 12 12 12 12
8 8 7 7 8 8 9 9 9 9 9 9 9 10 11 11 11 12 11 11 11 12 12 12 12 14 14 13 14 14 14 13 11 9 10 13 13 13 14 14 14 14 14 13 13 13 13 13 12 12 12 12 12 12
8 7 7 7 8 8 9 9 9 9 9 11 10 11 10 10 10 10 10 10 10 10 8 8 11 13 11 12 13 10 12 10 11 12 13 13 13 13 13 13 13 13 13 13 13 13 13 13 12 12 12 12 11 11
8 8 7 7 8 9 9 9 9 9 11 11 10 11 10 10 9 10 9 9 9 9 8 9 8 10 12 12 10 9 11 12 13 13 13 13 13 13 13 13 13 13 13 13 13 13 13 13 13 13 13 12 12 12
7 7 7 7 7 7 8 9 9 9 11 11 12 11 10 10 10 9 9 9 9 9 9 8 9 10 10 9 9 11 12 12 12 13 13 13 13 13 13 13 13 13 13 13 13 14 14 14 14 13 13 13 13 12
8 7 7 7 7 7 8 10 9 10 10 11 11 11 11 10 9 9 10 9 9 9 9 8 8 10 11 13 12 12 13 13 13 12 13 13 13 13 13 13 13 13 13 14 14 14 14 14 13 13 13 13 13 13
8 8 8 8 8 8 8 9 10 10 11 11 11 11 11 11 10 10 9 9 9 9 9 10 10 12 12 12 12 13 12 13 13 13 13 13 13 13 12 12 12 12 12 13 13 13 13 13 13 13 13 13 13 13
7 8 8 8 8 8 9 10 10 10 10 11 11 11 10 10 10 10 9 9 9 9 10 11 12 12 12 12 12 12 12 12 12 13 13 12 12 12 12 12 12 11 11 12 13 13 13 13 13 13 13 13 13 13
7 7 7 8 8 9 11 10 10 11 9 10 11 10 10 10 10 10 9 10 10 10 11 11 12 12 12 12 12 12 12 12 12 12 12 13 13 12 12 11 11 11 11 11 11 12 12 13 13 13 13 13 13 13
7 7 8 8 8 8 11 11 11 11 11 9 9 11 11 10 11 10 8 10 10 11 11 11 11 12 12 12 12 12 12 12 12 13 13 13 13 13 12 11 11 10 11 11 11 12 12 12 12 12 12 13 13 13
7 8 7 7 9 9 9 9 11 10 10 10 11 11 10 11 9 9 8 10 11 11 11 11 11 11 11 11 11 11 12 12 13 13 13 13 13 13 13 13 12 12 11 11 12 12 12 12 13 13 13 13 13 13
3 9 9 10 10 9 9 9 10 10 9 11 11 12 11 9 10 10 9 11 11 11 11 11 10 10 10 10 11 12 12 12 13 13 13 13 13 13 13 13 13 13 13 13 12 13 13 13 13 13 13 13 13 13
5 9 11 11 11 11 10 11 11 9 10 11 9 10 10 11 10 10 12 12 11 11 11 12 12 12 11 11 11 12 12 13 13 13 14 14 13 13 13 13 14 14 14 14 13 13 13 13 13 13 13 13 14 14
8 9 9 11 11 11 11 11 11 10 10 11 11 10 11 11 9 12 12 12 11 11 12 12 12 12 12 12 12 13 13 13 13 13 13 14 13 13 14 14 14 14 14 14 14 14 13 13 13 13 13 13 13 13
9 11 11 11 12 11 11 11 11 11 11 11 9 9 11 12 12 12 12 12 11 11 12 12 12 11 12 12 12 13 13 13 13 14 13 13 13 13 13 13 14 14 14 14 14 14 14 14 14 14 13 13 13 13
11 12 12 12 11 11 12 12 12 11 11 10 9 10 11 11 11 11 11 12 12 12 12 12 12 12 12 12 12 12 13 13 13 13 13 13 13 13 13 13 13 13 14 13 13 13 13 13 13 13 13 13 13 13
12 12 12 12 12 13 12 11 11 11 11 10 10 10 10 9 9 10 11 11 11 11 11 12 12 12 12 12 12 12 13 12 12 12 12 12 12 12 13 13 13 13 13 13 13 13 12 12 12 12 12 12 12 12
13 13 12 12 13 12 11 12 11 12 11 11 10 10 10 10 9 9 11 11 11 11 11 11 11 12 12 12 12 13 13 13 13 12 12 12 12 12 12 13 13 13 13 12 12 12 12 12 11 11 10 10 10 10
12 13 13 13 13 12 11 11 11 11 12 11 12 12 11 11 10 10 10 11 11 11 11 11 11 11 12 12 13 13 13 13 13 13 13 13 12 12 12 12 12 12 12 12 12 12 11 11 11 10 10 10 9 9

GFSWCAN_850_temp_240.txt.gz
Temp
9 9 9 9 9 7 7 8 8 9 9 9 9 10 10 10 11 11 11 11 10 10 13 14 15 16 16 15 14 16 15 15 13 14 14 13 14 13 15 15 16 16 15 15 14 16 20 17 17 19 17 18 19 19
9 9 10 10 9 9 8 8 9 9 9 9 9 10 10 10 10 11 11 10 10 10 13 15 15 15 16 17 15 16 15 15 15 13 12 12 13 12 13 16 13 15 14 14 15 16 16 17 18 18 19 19 19 19
10 10 10 10 10 10 10 10 9 10 10 9 10 10 10 10 10 11 11 11 11 10 13 13 18 19 19 19 18 16 17 18 16 17 13 12 14 11 13 13 14 14 13 13 15 16 16 17 18 19 19 19 19 20
10 10 10 10 10 10 10 10 10 10 10 10 10 10 10 10 10 11 11 11 11 11 8 15 17 18 19 20 20 19 19 18 18 17 15 13 14 13 13 14 14 14 14 14 14 16 17 17 17 19 19 19 20 21
10 10 10 10 10 10 10 10 10 10 11 10 10 10 11 11 11 11 12 12 12 11 10 13 18 19 19 20 21 20 19 17 18 15 13 14 13 12 11 12 13 13 14 14 14 16 16 14 16 18 19 20 19 21
10 10 10 10 10 10 10 10 11 11 11 11 11 11 11 12 11 12 12 12 12 11 10 8 17 20 19 20 20 20 20 18 19 19 15 15 15 15 13 13 14 15 16 16 15 16 16 15 16 16 18 19 19 20
10 10 10 10 10 10 10 10 11 11 11 11 11 12 12 12 12 12 11 11 12 11 11 10 11 18 19 20 20 19 19 19 20 19 16 15 15 15 13 15 14 15 15 16 16 16 15 15 14 15 16 17 17 18
10 10 10 9 9 10 10 10 11 11 11 12 13 13 13 12 12 12 12 12 12 11 11 9 11 15 18 19 19 19 19 19 18 17 16 14 14 13 14 13 14 15 15 15 15 16 15 14 14 15 15 16 17 18
9 9 9 9 9 9 10 10 11 11 12 12 13 12 13 13 12 12 12 12 12 12 11 9 10 13 17 17 17 17 18 14 16 13 13 14 11 14 13 13 14 15 15 14 14 14 14 14 13 13 13 13 14 15
9 9 9 9 9 9 9 9 11 11 12 12 12 12 12 12 12 12 12 12 10 11 11 8 12 11 15 15 14 15 15 13 14 12 14 11 11 12 13 15 15 16 15 15 15 15 15 14 13 13 12 12 12 12
9 9 9 9 9 9 8 7 9 11 11 12 12 12 11 12 13 13 12 10 10 10 11 12 13 12 16 13 12 13 13 10 14 12 13 12 12 11 13 14 14 14 15 15 15 14 14 14 13 13 12 12 12 12
8 8 8 9 9 8 7 7 8 9 8 8 9 10 11 12 12 11 9 10 10 12 12 11 14 15 16 16 13 12 14 13 15 11 13 13 10 13 13 13 13 13 14 14 14 13 13 13 13 13 12 12 11 11
8 8 8 8 8 8 7 7 8 8 8 8 7 7 8 10 8 11 13 12 11 10 11 12 11 15 15 16 11 11 14 12 11 13 14 11 11 13 13 13 13 13 13 13 13 13 13 13 13 13 12 12 12 11
8 8 8 8 8 7 8 8 9 9 9 8 8 5 8 10 12 11 10 11 11 11 10 11 13 13 14 13 9 15 12 11 13 13 13 9 12 13 13 14 14 14 13 13 13 13 13 12 12 12 12 12 12 12
8 9 8 8 8 7 8 9 9 9 9 9 8 7 11 11 11 12 12 13 11 11 10 11 12 12 11 13 11 11 13 14 12 12 9 11 13 13 13 14 14 14 14 14 13 13 13 12 12 12 12 12 12 12
8 9 7 7 8 8 8 9 9 9 9 9 9 9 11 10 11 11 11 10 10 10 9 10 10 10 12 13 13 13 13 13 11 9 11 12 13 13 13 14 13 13 13 13 13 13 13 13 12 12 12 11 11 11
9 8 7 7 8 8 9 9 9 9 9 10 10 10 10 9 8 9 9 9 9 9 7 8 10 10 9 10 12 10 12 10 11 11 12 13 13 14 14 13 13 13 13 13 13 13 13 13 13 13 12 12 12 11
8 8 7 7 8 9 9 9 9 9 9 10 10 11 9 9 9 9 8 9 8 9 8 8 8 9 10 11 10 9 10 10 12 12 13 13 13 14 14 14 13 13 13 13 13 13 13 13 13 13 13 12 13 12
8 7 7 7 7 8 9 9 9 9 10 10 11 11 10 10 9 8 8 8 8 8 9 8 9 9 9 9 8 9 11 12 12 12 13 13 13 13 13 13 13 13 13 13 13 13 13 14 14 14 13 13 13 13
8 7 8 8 8 8 9 9 9 9 9 11 11 10 9 10 10 9 9 8 8 9 8 8 8 8 8 9 11 12 12 12 13 13 13 13 12 12 12 12 13 13 13 13 13 14 14 14 14 14 13 13 13 13
8 8 8 8 8 8 8 9 10 10 10 10 10 10 10 9 9 8 8 9 9 8 8 9 9 10 10 11 12 12 12 12 12 13 12 12 12 13 12 12 12 12 12 12 13 13 13 13 13 13 13 13 13 13
7 8 8 8 8 8 9 9 9 9 9 11 10 10 9 9 9 9 8 8 8 8 8 8 9 10 11 11 12 12 12 12 12 12 12 12 12 12 12 12 12 11 11 11 12 12 12 12 13 13 12 13 13 13
7 7 8 8 8 9 10 10 10 10 9 10 10 10 9 9 10 10 9 9 9 9 10 11 11 12 12 11 11 11 11 12 12 13 13 12 12 11 11 11 11 11 11 11 11 11 12 12 12 12 12 13 13 13
7 8 8 8 8 7 10 11 10 10 10 9 9 11 10 10 11 10 9 10 10 10 11 11 11 11 11 11 11 11 12 12 12 12 12 12 13 12 11 11 11 10 11 11 11 11 11 12 12 12 12 12 12 12
7 8 8 7 9 9 8 8 9 9 9 9 10 10 9 10 9 9 8 10 11 10 10 11 11 11 11 11 11 11 12 12 12 13 13 13 13 13 13 12 12 12 11 11 11 12 12 12 12 12 12 12 12 13
3 9 9 9 9 9 8 8 9 9 8 10 9 10 10 8 9 9 8 11 11 11 10 10 10 10 11 11 11 12 12 12 13 13 13 13 13 13 13 13 13 13 13 12 12 12 12 12 12 13 12 13 13 13
5 8 10 10 10 10 9 10 9 8 9 10 8 8 9 10 10 9 11 11 11 11 11 11 11 11 11 11 12 12 13 13 13 14 14 13 13 13 13 14 13 13 13 13 13 13 13 13 13 13 13 13 13 13
8 8 8 10 10 10 9 9 8 8 8 10 10 9 10 11 9 11 11 11 11 11 12 11 11 11 11 12 13 13 13 13 13 14 14 14 14 14 14 13 13 14 14 14 14 14 14 14 13 13 13 13 13 13
9 10 10 10 11 11 10 9 9 10 10 10 9 9 9 10 10 10 11 11 11 11 11 11 11 11 12 13 13 13 13 13 13 13 13 13 13 13 13 13 13 14 14 14 14 14 13 13 13 13 13 13 13 13
10 11 11 11 11 10 11 10 10 10 10 10 9 9 9 9 9 10 10 10 11 11 11 12 12 12 12 12 12 13 13 13 13 13 13 13 13 13 13 13 13 13 13 13 13 13 13 13 13 13 12 12 12 12
11 11 11 11 11 11 11 11 10 11 10 10 10 9 9 8 8 8 10 10 11 11 12 12 12 12 12 12 12 12 12 12 12 12 12 12 12 12 13 13 13 13 12 12 12 12 12 12 12 11 11 11 10 10
12 12 11 11 12 11 10 11 11 11 11 11 10 10 9 9 9 10 10 11 11 11 11 12 12 12 12 12 12 12 12 12 12 12 12 12 12 12 12 12 12 12 12 12 12 12 12 11 11 11 10 10 9 9
12 12 12 11 12 11 11 11 11 11 11 11 11 11 10 9 8 10 10 10 10 10 11 11 11 12 12 12 13 13 13 13 13 13 13 13 13 12 12 12 12 12 12 12 12 12 12 11 11 11 10 10 9 9

GFSWCAN_850_temp_246.txt.gz
Temp
10 10 10 10 10 10 10 10 10 10 10 10 10 10 10 10 10 10 9 11 9 13 15 15 16 18 19 19 22 19 20 21 22 23 24 25 24 25 25 26 25 26 26 27 27 27 26 24 24 27 24 23 23 24
10 10 10 10 10 10 10 10 10 10 10 10 10 10 10 10 9 10 7 10 10 8 14 13 14 14 16 17 19 19 19 20 22 22 22 23 23 23 25 25 23 24 25 25 26 26 22 22 22 21 22 23 22 22
10 10 10 10 10 10 10 10 10 10 10 10 10 10 10 10 9 9 9 8 9 9 13 14 17 16 17 16 17 19 20 19 19 18 21 22 21 22 22 25 24 22 21 24 23 23 23 22 21 21 21 22 21 22
10 10 10 10 10 10 10 10 10 10 10 10 10 10 10 10 10 10 10 8 8 10 14 19 16 16 16 16 16 17 18 17 18 18 21 22 22 20 23 21 22 23 21 23 24 22 21 20 20 21 20 20 21 21
9 10 10 10 10 10 10 10 10 10 10 10 10 10 10 10 10 10 11 11 10 9 15 17 17 18 16 16 16 17 18 18 19 20 21 21 21 20 18 20 23 22 24 24 25 23 22 20 18 19 19 19 19 20
9 9 9 10 10 10 10 10 10 10 10 10 10 11 11 11 11 10 10 12 11 10 11 18 18 17 17 16 16 16 17 18 18 20 22 21 18 18 19 21 21 20 19 19 21 20 20 18 18 18 18 17 17 18
9 9 9 9 9 9 10 10 10 10 10 11 12 12 12 11 11 9 11 11 11 10 11 17 20 18 17 17 17 17 17 18 19 21 22 22 21 18 22 22 20 18 18 18 18 17 18 18 18 16 17 16 16 16
9 9 9 9 9 9 10 10 10 10 11 11 12 12 12 11 10 10 10 11 11 9 11 16 20 20 18 20 20 19 19 18 19 21 21 22 20 21 22 22 18 17 17 17 17 17 18 16 16 15 16 16 16 16
8 8 8 9 9 9 9 10 10 10 10 11 11 11 11 10 10 9 11 10 10 9 15 17 19 21 18 21 20 19 20 22 20 22 22 21 22 21 22 20 18 17 17 17 16 16 16 16 16 15 15 15 16 15
8 8 8 9 9 9 9 9 9 10 10 11 11 9 12 9 10 10 10 9 9 11 11 16 17 19 19 20 21 22 21 19 18 21 20 21 22 20 17 18 17 16 16 16 15 15 15 15 15 15 15 14 14 13
8 8 8 9 9 9 8 8 9 9 10 9 9 11 10 10 10 11 13 14 15 15 15 16 17 18 18 20 21 19 18 19 20 19 21 21 22 21 16 16 15 15 15 16 16 15 16 15 15 15 14 13 13 13
8 8 8 9 9 8 8 8 8 9 8 9 9 10 11 10 11 13 16 16 16 16 15 15 15 16 17 16 18 18 20 20 18 20 21 21 21 16 15 15 14 15 15 14 14 14 14 13 13 13 13 13 13 12
8 8 8 9 8 8 8 8 8 9 9 8 7 9 12 13 11 15 15 15 15 14 13 12 14 15 15 15 16 17 17 19 20 20 21 22 17 15 15 14 14 14 14 14 14 13 13 13 12 13 12 12 12 12
8 9 9 8 8 8 8 8 9 9 9 10 12 8 14 15 15 14 15 14 13 12 13 11 11 14 16 17 19 17 19 20 20 20 21 21 16 15 14 14 14 14 14 14 14 13 13 13 12 12 12 12 12 12
9 9 9 8 8 8 8 9 9 9 8 11 12 11 15 15 14 14 13 13 13 12 12 12 11 11 14 15 17 18 18 18 19 20 21 18 15 14 14 14 15 14 14 14 14 14 14 13 13 13 12 12 12 11
9 9 8 8 8 8 9 9 9 9 8 11 12 15 15 16 16 15 13 13 12 11 12 12 12 10 10 10 14 17 18 18 19 18 16 14 14 14 14 14 14 14 14 14 14 14 14 13 13 13 12 12 12 11
9 8 7 8 8 9 9 9 9 9 11 12 14 12 13 13 12 11 11 10 9 11 13 13 13 12 10 10 10 15 15 15 16 15 14 14 13 13 13 14 14 13 13 13 13 13 13 13 13 13 13 13 13 12
8 8 8 8 9 10 9 9 9 11 13 13 13 13 11 11 10 10 9 9 8 10 12 13 13 13 13 12 12 12 12 10 13 14 14 12 13 13 13 13 13 13 13 13 13 13 13 13 13 14 13 12 13 13
8 8 8 8 8 9 8 9 9 12 13 13 12 12 11 10 8 8 8 8 8 8 9 11 12 14 14 12 11 10 10 11 13 13 12 12 12 12 13 13 13 13 13 13 13 14 14 13 14 14 13 13 14 14
8 8 8 8 8 7 9 10 10 11 13 13 12 12 10 9 7 8 8 8 8 8 9 11 11 11 11 9 9 9 10 10 12 13 13 12 13 12 12 13 13 12 12 13 13 14 14 14 13 14 13 13 14 14
8 8 8 8 8 7 9 11 12 11 12 13 12 12 10 8 8 8 8 8 9 8 8 8 8 8 8 8 9 10 10 11 12 12 12 13 13 13 13 13 13 13 14 14 14 13 14 14 14 13 13 13 14 14
7 7 8 8 7 8 9 10 11 11 11 13 13 13 12 12 9 8 8 8 7 7 8 8 8 9 9 9 9 10 12 12 12 13 13 13 13 13 13 13 13 13 13 13 13 13 12 13 13 13 13 13 13 14
7 8 7 7 9 9 11 10 12 12 14 14 14 14 13 13 11 10 9 10 9 9 9 9 10 10 10 11 11 11 11 12 13 13 13 13 12 12 12 12 12 12 12 11 11 12 12 12 12 13 13 13 14 13
8 6 8 10 10 11 12 13 12 13 14 15 14 14 14 13 13 13 12 11 10 10 10 11 11 11 11 11 11 12 12 13 13 13 13 13 13 12 12 11 12 12 11 11 11 12 11 12 13 13 13 13 13 13
7 9 10 8 11 12 14 14 14 15 15 15 15 14 14 13 15 14 12 11 10 10 10 11 11 11 11 11 12 12 12 13 14 13 13 14 14 13 13 13 12 12 13 12 12 12 13 13 13 13 13 14 14 14
7 11 9 12 13 13 14 14 14 14 14 14 15 14 13 15 14 13 12 11 10 11 10 10 11 11 11 12 12 12 12 12 13 13 13 14 14 14 14 14 14 13 13 13 14 14 14 14 14 14 14 14 14 13
9 12 12 10 11 12 13 13 13 14 14 14 14 14 14 14 14 12 10 10 10 10 10 10 11 11 11 12 11 12 12 13 13 13 13 13 13 14 14 14 14 13 13 13 13 14 14 14 14 14 14 14 14 14
11 11 13 12 13 12 13 13 13 13 13 12 11 11 12 12 12 10 10 10 10 11 11 10 11 11 11 12 12 13 13 13 14 13 13 14 14 13 13 13 13 13 13 13 13 13 13 13 13 13 13 13 13 12
12 12 12 14 13 13 13 13 12 12 11 11 11 9 8 9 9 9 9 10 10 11 12 12 11 11 11 12 12 12 13 14 14 14 14 14 14 14 13 13 13 13 13 13 13 12 12 12 12 12 12 12 12 12
13 12 13 13 12 13 12 12 12 12 11 10 10 9 9 9 9 9 9 9 10 11 11 11 12 12 12 13 13 13 13 13 13 13 14 14 14 13 13 13 13 13 13 13 13 12 12 12 12 12 12 12 11 11
12 13 12 13 14 12 11 12 12 11 11 10 9 10 10 9 8 9 10 10 11 10 11 11 12 12 13 12 12 13 13 13 12 12 12 13 13 13 13 12 13 13 13 13 13 13 13 13 13 12 12 12 11 11
13 14 14 14 13 12 11 12 13 13 12 11 10 9 9 9 9 9 9 10 10 11 12 12 12 12 11 12 12 13 13 13 13 13 12 12 12 12 12 12 13 13 13 12 13 13 13 12 12 12 12 12 12 11
13 14 14 14 14 14 12 12 13 13 13 12 11 11 11 11 10 10 10 10 10 11 11 11 12 12 12 12 13 13 13 13 13 13 13 13 13 13 12 13 13 13 12 13 12 13 13 13 12 12 11 12 12 11